STARLINK-3853, 52359

Orbit data source: Space-Track

STARLINK-3853, 52359 is a payload satellite owned by SpaceX/Seattle (US) in LEO that was launched on Fri, 29 Apr 2022 UTC via an FALCON 9 launch vehicle from the Air Force Eastern Test Range (AFETR). Payload-class satellites include a variety of spacecraft equipped with specific instruments for various scientific and technological missions. These include communications satellites like Starlink; space stations such as the ISS; scientific satellites like the Hubble; Earth observation satellites from companies like Planet Labs, Umbra, and HawkEye 360; GPS; miniature CubeSats for education and research; and military/defense satellites.

Loading next visibility...
Identifier
52359, 2022-045AE
Orbit
LEO
Country
Flag of USUS
Related business
Manufacturer
SpaceX/Seattle
Mission
Operational Commercial Communications
Bus & Motor
STARLINK, Unknown motor
Mass
297 kg wet, ~275 kg dry
Launch date (UTC)
2022-04-29 (4 years ago)
Launch vehicle
FALCON 9
Launch site
Air Force Eastern Test Range (AFETR)
Object type
Payload
Rocket body
Debris
Shape & HBR
Box + 1 Pan, 10.1 m
Radar Cross Section
11.087 m², Large (>1 m²)

Expand to show TLE details & history
Last TLE update: 19 hours ago

TLE from 19 hours ago
0 STARLINK-3853
1 52359U 22045AE  25348.89156462 -.00000953  00000-0 -41832-4 0  9991
2 52359  53.2167 219.8031 0001444  88.4010 271.7148 15.08819935202988
Epoch: 2025-12-14T21:23Z
TLE epoch observation values (Epoch: 2025-12-14T21:23:51.183Z)
Latitude
0.00003°
Longitude
175.04189°
Altitude
540.672 km
Speed
7.593 km/s
True Right ascension
14h 39m 12s
True Declination
0° 00' 00"
Sunlit
Object was in daylight at epoch
Visualization orbit readout
Latitude
Unknown
Longitude
Unknown
Altitude
Unknown
Speed
Unknown
Apparent Right ascension
Unknown
Apparent Declination
Unknown
Sunlit
N/A
Visualization observer readout
Local Sidereal Time
15:11:33
Azimuth
Unknown
Elevation
Unknown
Doppler factor
Unknown
Orbital elements
Apogee altitude
541.049 km
Perigee altitude
539.051 km
Semi-major axis
6,918.187 km
Eccentricity
0.00014
Inclination
53.2167°
RAAN
219.8031°
Arg. of periapsis
88.401°
True anomaly
271.69826°
Mean anomaly
271.7148°
Eccentric anomaly
271.70653°
Mean motion
3.77185 °/min
Orbital period
95.44 mins
BSTAR
-0.000041832
Loading maneuver chart data...
Computing Atmospheric mass density...
Loading historical data...
Loading historical data...
Loading historical data...
Loading historical data...
Loading historical data...
Loading historical data...
Loading historical data...

Documentation

Showing up to 5 results
|